Regional Weather Roundup
Issued by NWS

Home | Current Version | Previous Version | Text Only | Print | Product List | Glossary Off
Versions: 1 2 3 4 5 6 7 8 9 10 11 12 13 14 15 16 17 18 19 20 21 22 23 24 25 26 27 28 29 30 31 32 33 34 35 36 37 38 39 40 41 42 43 44 45 46 47 48 49 50

000
ASUS43 KLOT 302303
RWRIL

ILLINOIS REGIONAL WEATHER ROUNDUP
NATIONAL WEATHER SERVICE CHICAGO/ROMEOVILLE IL
600 PM CDT THU MAR 30 2017

NOTE: "FAIR" INDICATES FEW OR NO CLOUDS BELOW 12,000 FEET WITH NO
SIGNIFICANT WEATHER AND/OR OBSTRUCTIONS TO VISIBILITY.

* THESE STATIONS ARE NOT UNDER NWS QUALITY CONTROL. THEY ALSO MAY NOT
  REPORT WEATHER SUCH AS PRECIPITATION OR FOG.

ILZ001-002-007-009-015-016-024-310000-
NORTHWEST ILLINOIS

CITY           SKY/WX    TMP DP  RH WIND       PRES   REMARKS
MOLINE         LGT RAIN  44  41  89 N12       29.60R FOG
STERLING*      CLOUDY    45  43  93 NE13      29.60S
SAVANNA*       LGT RAIN  42  40  94 NE16G23   29.62S
$$

ILZ003-004-008-010-011-017-018-310000-
NORTH CENTRAL ILLINOIS

CITY           SKY/WX    TMP DP  RH WIND       PRES   REMARKS
ROCKFORD       CLOUDY    44  40  85 NE12      29.65F
FREEPORT*      CLOUDY    40  40  98 NE13      29.66S FOG
ROCHELLE*      CLOUDY    43  42  93 NE22      29.61F
PERU*          CLOUDY    45  44  95 NE14      29.59R FOG
$$

ILZ005-006-012>014-019>023-310000-
NORTHEAST ILLINOIS

CITY           SKY/WX    TMP DP  RH WIND       PRES   REMARKS
CHICAGO-OHARE  CLOUDY    44  41  89 N13       29.61R
CHICAGO-MIDWAY CLOUDY    45  44  97 NE10      29.60S FOG
AURORA         CLOUDY    45  42  89 N15       29.61R
LANSING*       CLOUDY    46  46 100 NE6       29.60S FOG
JOLIET*        CLOUDY    48  46  93 N7        29.60R
WAUKEGAN       CLOUDY    39  39 100 N13       29.67R WCI  31
DUPAGE AIRPORT CLOUDY    43  43 100 N16       29.62R FOG
KANKAKEE*      RAIN      51  51  97 NE7       29.58S
WHEELING       CLOUDY    41  41 100 N10       29.65R
NORTHERLY ISL    N/A     41  39  93 NE9         N/A
$$

LMZ740>746-310000-
SOUTHERN LAKE MICHIGAN

STATION/POSITION SKY/WX   TEMP    WIND        PRES    VSBY  WAVE
                          AIR SEA DIR/SP/G                  HT/PER
                          (F)     (DEG/KT/KT) (MB)    (MI)  (FT/S)
HARRISON CRIB              41      70/ 16/ 17   N/A
BURNHAM HARBOR             41      50/ 10/ 11   N/A
CALUMET HARBOR             41      20/ 10/ 13 1002.0S
BURNS HARBOR               49      90/  8/ 14 1002.7
MICHIGAN CITY              48      70/  7/  8   N/A
$$

ILZ025>027-034>036-040-047-049-050-058-095>099-310000-
WEST-CENTRAL ILLINOIS

CITY           SKY/WX    TMP DP  RH WIND       PRES   REMARKS
QUINCY         HVY RAIN  51  50  96 W8        29.56R VSB 1
GALESBURG*     DRZL/FOG  44  44 100 N12       29.55F VSB 1
JACKSONVILLE*  HVY RAIN  53  52  97 SW18      29.54R
PITTSFIELD*    DRIZZLE   53  50  89 W9        29.57R
$$

ILZ028>032-037-038-041>044-048-051>054-059>061-310000-
CENTRAL ILLINOIS

CITY           SKY/WX    TMP DP  RH WIND       PRES   REMARKS
PONTIAC        LGT RAIN  53  53  99 NE13      29.55F
BLOOMINGTON    CLOUDY    58  57  97 NE13      29.51F
DECATUR        CLOUDY    59  56  89 SE5       29.52R
PEORIA         CLOUDY    51  50  96 NE12      29.52R FOG
LACON*         CLOUDY    48  48  99 NE9       29.53F FOG
LINCOLN*       SUNNY     62  58  88 S3        29.50R
SPRINGFIELD    CLOUDY    61  56  83 S16       29.51S
TAYLORVILLE    CLOUDY    61  55  81 SW8       29.52S
$$

ILZ033-039-045-046-055>057-062-063-310000-
EAST-CENTRAL ILLINOIS

CITY           SKY/WX    TMP DP  RH WIND       PRES   REMARKS
CHAMPAIGN      PTSUNNY   57  54  89 N6        29.53S
RANTOUL*       LGT RAIN  57  56  94 N8        29.52F
MATTOON        CLOUDY    59  56  89 SE6       29.54S
$$

ILZ079-100>102-310000-
SOUTHWEST ILLINOIS

CITY           SKY/WX    TMP DP  RH WIND       PRES   REMARKS
ALTON          PTSUNNY   59  50  72 W14       29.55S
BELLEVILLE     MOSUNNY   61  53  75 W10       29.53F
CAHOKIA*       PTSUNNY   60  46  59 W9        29.56R
SPARTA*        CLOUDY    60  49  69 W14G25    29.56R
$$

ILZ064>066-069>071-074>076-080>082-084>086-088>090-092>094-310000-
SOUTH-CENTRAL ILLINOIS

CITY           SKY/WX    TMP DP  RH WIND       PRES   REMARKS
CARBONDALE     SUNNY     67  48  50 SW21G28   29.54R
CAIRO*         SUNNY     63  48  59 SW17G29   29.60R
EFFINGHAM*     PTSUNNY   60  57  91 E3        29.54F
MARION         PTSUNNY   68  46  45 SW18G35   29.55R
MT. VERNON     CLOUDY    66  56  70 SE5       29.53S
CENTRALIA*     HVY RAIN  60  58  96 W3        29.55R
SALEM*         CLOUDY    62  56  82 CALM      29.54S
METROPOLIS*    SUNNY     66  51  57 SW15G25   29.57S
$$

ILZ067-068-072-073-078-083-087-091-310000-
SOUTHEAST ILLINOIS

CITY           SKY/WX    TMP DP  RH WIND       PRES   REMARKS
LAWRENCEVILLE  HVY RAIN  60  57  89 S15G24    29.57S FOG
FLORA*         CLOUDY    64  57  77 N6        29.54F
FAIRFIELD*     CLOUDY    65  60  84 S8        29.52F
HARRISBURG*    MOSUNNY   65  61  87 S10       29.55S
ROBINSON*      HVY RAIN  59  57  94 SW5       29.59R
CARMI*         CLOUDY    63  59  87 SW10      29.55F
$$

ABBREVIATIONS USED IN REMARKS
   TC - TEMPERATURE IN CELSIUS
  WCI - WIND CHILL INDEX
   HX - HEAT INDEX
  VSB - VISIBILITY
$$





USA.gov is the U.S. government's official web portal to all federal, state and local government web resources and services.